QPF
0.00 0.00 0.00 0.00 0.00 0.01 0.01 0.01 0.01 0.01 0.02 0.01 0.01 0.01 0.01 0.02 0.01 0.01 0.02 0.03 0.03 0.04 0.05 0.03 0.03 0.04 0.06 0.05 0.04 0.03 0.02 0.04 0.05 0.04 0.04 0.04 0.04 0.04 0.04 0.05 0.07 0.07 0.06 0.06 0.05 0.06 0.07 0.07 0.07
0.00 0.00 0.00 0.00 0.00 0.01 0.01 0.01 0.01 0.01 0.01 0.01 0.01 0.01 0.01 0.01 0.01 0.02 0.02 0.01 0.02 0.03 0.05 0.03 0.04 0.03 0.04 0.04 0.04 0.04 0.03 0.04 0.06 0.06 0.04 0.04 0.04 0.04 0.04 0.06 0.08 0.07 0.07 0.08 0.06 0.06 0.09 0.09 0.08
0.00 0.00 0.00 0.00 0.00 0.00 0.01 0.00 0.01 0.00 0.00 0.01 0.01 0.00 0.00 0.00 0.01 0.01 0.01 0.01 0.01 0.02 0.04 0.05 0.05 0.04 0.03 0.03 0.02 0.03 0.04 0.05 0.07 0.06 0.04 0.05 0.05 0.06 0.07 0.08 0.08 0.09 0.07 0.08 0.07 0.08 0.09 0.11 0.11
0.00 0.00 0.00 0.00 0.00 0.00 0.00 0.00 0.00 0.01 0.01 0.01 0.00 0.00 0.00 0.01 0.00 0.00 0.02 0.01 0.00 0.01 0.02 0.03 0.05 0.05 0.03 0.03 0.03 0.05 0.07 0.07 0.05 0.04 0.04 0.04 0.05 0.06 0.08 0.08 0.09 0.08 0.07 0.08 0.10 0.10 0.12 0.13 0.11
0.00 0.00 0.00 0.00 0.00 0.00 0.00 0.00 0.00 0.01 0.01 0.00 0.00 0.00 0.00 0.01 0.00 0.01 0.03 0.01 0.00 0.02 0.02 0.01 0.04 0.06 0.04 0.03 0.04 0.08 0.13 0.12 0.06 0.03 0.04 0.04 0.05 0.06 0.05 0.07 0.08 0.08 0.08 0.12 0.17 0.16 0.16 0.17 0.15
0.00 0.00 0.00 0.00 0.00 0.00 0.00 0.00 0.00 0.01 0.01 0.01 0.00 0.00 0.01 0.01 0.01 0.03 0.03 0.01 0.01 0.02 0.02 0.02 0.04 0.05 0.04 0.04 0.07 0.12 0.14 0.10 0.07 0.04 0.03 0.04 0.06 0.06 0.05 0.06 0.07 0.06 0.07 0.14 0.26 0.23 0.20 0.19 0.16
0.00 0.00 0.00 0.00 0.00 0.00 0.00 0.00 0.01 0.01 0.01 0.00 0.00 0.00 0.01 0.01 0.02 0.02 0.02 0.01 0.01 0.01 0.01 0.03 0.05 0.06 0.05 0.06 0.09 0.13 0.12 0.10 0.08 0.06 0.04 0.03 0.07 0.05 0.05 0.06 0.06 0.06 0.07 0.12 0.24 0.23 0.18 0.17 0.19
0.00 0.00 0.00 0.00 0.00 0.00 0.00 0.00 0.01 0.01 0.01 0.00 0.01 0.02 0.02 0.03 0.02 0.03 0.03 0.01 0.01 0.01 0.01 0.02 0.04 0.06 0.06 0.06 0.06 0.08 0.07 0.06 0.06 0.06 0.06 0.04 0.06 0.05 0.05 0.05 0.05 0.04 0.05 0.10 0.16 0.17 0.15 0.18 0.24
0.00 0.00 0.00 0.00 0.00 0.00 0.00 0.01 0.01 0.00 0.01 0.00 0.00 0.00 0.01 0.02 0.03 0.03 0.03 0.01 0.01 0.00 0.01 0.02 0.02 0.03 0.04 0.04 0.04 0.07 0.07 0.06 0.06 0.07 0.06 0.07 0.09 0.08 0.07 0.05 0.06 0.06 0.05 0.09 0.13 0.15 0.16 0.21 0.30
0.00 0.00 0.00 0.00 0.00 0.00 0.00 0.00 0.00 0.00 0.01 0.01 0.00 0.00 0.01 0.02 0.03 0.03 0.01 0.02 0.01 0.01 0.01 0.01 0.02 0.03 0.03 0.02 0.03 0.06 0.06 0.06 0.06 0.07 0.08 0.10 0.11 0.10 0.07 0.09 0.10 0.09 0.07 0.08 0.11 0.13 0.15 0.22 0.32
0.00 0.00 0.00 0.00 0.00 0.00 0.00 0.00 0.00 0.00 0.00 0.00 0.00 0.00 0.01 0.02 0.02 0.02 0.02 0.02 0.02 0.02 0.02 0.02 0.03 0.03 0.03 0.03 0.03 0.05 0.06 0.06 0.07 0.07 0.08 0.07 0.05 0.05 0.07 0.16 0.15 0.14 0.13 0.12 0.12 0.10 0.12 0.20 0.23
0.00 0.00 0.00 0.00 0.00 0.00 0.00 0.00 0.00 0.01 0.00 0.00 0.00 0.00 0.00 0.01 0.01 0.01 0.01 0.01 0.02 0.02 0.01 0.02 0.02 0.03 0.04 0.04 0.04 0.03 0.04 0.04 0.04 0.04 0.03 0.04 0.04 0.04 0.04 0.12 0.14 0.15 0.15 0.14 0.11 0.11 0.12 0.13 0.11
0.00 0.00 0.00 0.00 0.00 0.00 0.00 0.00 0.00 0.00 0.00 0.00 0.00 0.00 0.01 0.01 0.02 0.01 0.00 0.00 0.00 0.01 0.01 0.01 0.02 0.03 0.03 0.04 0.04 0.03 0.04 0.04 0.03 0.02 0.02 0.02 0.03 0.03 0.03 0.06 0.11 0.14 0.12 0.10 0.09 0.10 0.11 0.10 0.08
0.00 0.00 0.00 0.00 0.00 0.00 0.00 0.00 0.00 0.01 0.00 0.01 0.00 0.00 0.01 0.01 0.02 0.01 0.01 0.01 0.00 0.01 0.01 0.01 0.02 0.03 0.04 0.04 0.05 0.05 0.04 0.04 0.02 0.02 0.02 0.02 0.02 0.03 0.03 0.04 0.08 0.09 0.07 0.07 0.07 0.08 0.09 0.09 0.08
0.00 0.00 0.00 0.00 0.00 0.00 0.00 0.00 0.00 0.00 0.01 0.01 0.00 0.00 0.01 0.01 0.01 0.01 0.01 0.01 0.00 0.01 0.01 0.01 0.02 0.03 0.04 0.04 0.05 0.05 0.04 0.02 0.01 0.01 0.01 0.01 0.02 0.02 0.02 0.03 0.04 0.04 0.04 0.04 0.04 0.04 0.05 0.05 0.05
0.00 0.00 0.00 0.00 0.00 0.00 0.00 0.00 0.00 0.00 0.01 0.01 0.00 0.00 0.00 0.00 0.00 0.00 0.00 0.01 0.01 0.01 0.02 0.02 0.02 0.03 0.04 0.04 0.04 0.04 0.02 0.03 0.02 0.01 0.01 0.01 0.01 0.02 0.02 0.03 0.02 0.03 0.03 0.03 0.03 0.04 0.04 0.05 0.05
0.00 0.00 0.00 0.00 0.00 0.00 0.00 0.00 0.00 0.00 0.00 0.00 0.00 0.00 0.00 0.00 0.00 0.00 0.00 0.00 0.01 0.01 0.01 0.02 0.02 0.03 0.03 0.02 0.02 0.03 0.05 0.04 0.03 0.02 0.01 0.01 0.02 0.02 0.02 0.03 0.03 0.03 0.03 0.03 0.02 0.03 0.03 0.04 0.03
0.00 0.00 0.00 0.00 0.00 0.00 0.00 0.00 0.00 0.00 0.00 0.00 0.00 0.00 0.00 0.00 0.00 0.00 0.00 0.01 0.01 0.01 0.01 0.01 0.02 0.03 0.02 0.02 0.02 0.03 0.04 0.03 0.02 0.02 0.02 0.01 0.01 0.01 0.02 0.03 0.03 0.02 0.03 0.03 0.03 0.03 0.02 0.02 0.02
0.00 0.00 0.00 0.00 0.00 0.00 0.00 0.00 0.00 0.00 0.00 0.00 0.00 0.00 0.00 0.00 0.00 0.00 0.00 0.00 0.01 0.01 0.01 0.01 0.01 0.02 0.02 0.02 0.02 0.02 0.02 0.02 0.01 0.01 0.01 0.02 0.01 0.01 0.02 0.02 0.04 0.03 0.02 0.03 0.02 0.02 0.02 0.02 0.02
0.00 0.00 0.00 0.00 0.00 0.00 0.00 0.00 0.00 0.00 0.00 0.00 0.00 0.00 0.00 0.00 0.00 0.00 0.00 0.01 0.01 0.01 0.01 0.01 0.01 0.01 0.01 0.01 0.01 0.02 0.02 0.02 0.02 0.02 0.02 0.03 0.03 0.02 0.02 0.03 0.03 0.03 0.02 0.01 0.01 0.02 0.03 0.03 0.02
0.00 0.00 0.00 0.00 0.00 0.00 0.00 0.00 0.00 0.00 0.00 0.00 0.00 0.00 0.00 0.00 0.00 0.00 0.00 0.01 0.01 0.01 0.01 0.01 0.01 0.01 0.01 0.01 0.02 0.02 0.03 0.05 0.05 0.05 0.05 0.04 0.05 0.04 0.03 0.03 0.03 0.03 0.02 0.02 0.03 0.03 0.04 0.03 0.03
0.00 0.00 0.00 0.00 0.00 0.00 0.00 0.00 0.00 0.00 0.00 0.00 0.00 0.00 0.01 0.00 0.00 0.00 0.00 0.01 0.01 0.01 0.01 0.00 0.02 0.02 0.01 0.01 0.02 0.03 0.04 0.06 0.08 0.08 0.10 0.10 0.08 0.06 0.04 0.03 0.03 0.03 0.03 0.02 0.02 0.02 0.03 0.03 0.03
0.00 0.00 0.00 0.00 0.00 0.00 0.00 0.00 0.00 0.00 0.00 0.00 0.00 0.00 0.00 0.00 0.00 0.00 0.00 0.01 0.01 0.02 0.01 0.00 0.01 0.01 0.01 0.01 0.02 0.03 0.04 0.08 0.12 0.16 0.20 0.18 0.12 0.06 0.03 0.03 0.03 0.03 0.03 0.03 0.03 0.02 0.02 0.02 0.02
0.00 0.00 0.00 0.00 0.00 0.00 0.00 0.00 0.00 0.00 0.00 0.00 0.00 0.00 0.01 0.01 0.01 0.01 0.00 0.01 0.01 0.01 0.02 0.01 0.01 0.01 0.02 0.02 0.02 0.03 0.05 0.08 0.12 0.16 0.17 0.16 0.11 0.07 0.05 0.04 0.03 0.03 0.03 0.03 0.03 0.02 0.02 0.02 0.03
0.00 0.00 0.00 0.00 0.00 0.00 0.00 0.00 0.00 0.00 0.00 0.00 0.00 0.01 0.01 0.01 0.00 0.00 0.00 0.00 0.01 0.02 0.02 0.03 0.02 0.02 0.03 0.03 0.03 0.03 0.04 0.05 0.08 0.11 0.11 0.11 0.10 0.07 0.05 0.04 0.04 0.03 0.02 0.03 0.04 0.03 0.02 0.02 0.03
0.00 0.00 0.00 0.00 0.00 0.00 0.00 0.00 0.00 0.00 0.00 0.00 0.00 0.01 0.01 0.00 0.00 0.00 0.00 0.01 0.01 0.02 0.02 0.02 0.02 0.02 0.02 0.02 0.03 0.04 0.04 0.04 0.05 0.07 0.08 0.07 0.06 0.06 0.05 0.03 0.04 0.04 0.02 0.02 0.03 0.03 0.03 0.02 0.02
0.00 0.00 0.00 0.00 0.00 0.00 0.00 0.00 0.00 0.00 0.00 0.00 0.00 0.00 0.00 0.00 0.01 0.01 0.01 0.02 0.03 0.02 0.02 0.02 0.01 0.02 0.01 0.02 0.03 0.04 0.03 0.03 0.03 0.04 0.06 0.06 0.05 0.04 0.03 0.02 0.02 0.02 0.03 0.02 0.02 0.03 0.04 0.05 0.04
0.00 0.00 0.00 0.00 0.00 0.00 0.00 0.00 0.01 0.01 0.00 0.00 0.00 0.00 0.00 0.00 0.01 0.01 0.02 0.03 0.04 0.03 0.03 0.03 0.03 0.02 0.02 0.02 0.01 0.02 0.02 0.03 0.03 0.05 0.06 0.06 0.06 0.05 0.04 0.02 0.02 0.02 0.02 0.02 0.02 0.03 0.05 0.05 0.05
0.00 0.00 0.00 0.00 0.00 0.00 0.00 0.00 0.00 0.00 0.00 0.00 0.00 0.00 0.00 0.00 0.01 0.01 0.03 0.04 0.06 0.05 0.04 0.03 0.02 0.02 0.02 0.02 0.02 0.02 0.03 0.03 0.05 0.08 0.09 0.09 0.08 0.06 0.06 0.05 0.03 0.03 0.03 0.02 0.02 0.02 0.03 0.04 0.05
0.00 0.00 0.00 0.00 0.00 0.00 0.00 0.00 0.00 0.00 0.00 0.00 0.00 0.00 0.00 0.00 0.01 0.01 0.02 0.03 0.05 0.06 0.05 0.03 0.02 0.02 0.03 0.03 0.04 0.04 0.04 0.05 0.07 0.10 0.11 0.11 0.08 0.06 0.05 0.05 0.04 0.03 0.03 0.02 0.02 0.02 0.02 0.03 0.04
MSLP
1007.36 1007.59 1007.83 1007.97 1007.96 1007.77 1007.44 1007.04 1006.65 1006.38 1006.25 1006.29 1006.43 1006.59 1006.67 1006.61 1006.37 1005.98 1005.51 1005.06 1004.69 1004.46 1004.34 1004.27 1004.17 1003.95 1003.57 1003.03 1002.42 1001.84 1001.43 1001.28 1001.42 1001.83 1002.41 1003.02 1003.54 1003.87 1003.99 1003.94 1003.83 1003.77 1003.88 1004.20 1004.74 1005.42 1006.12 1006.74 1007.17
1007.32 1007.54 1007.73 1007.81 1007.75 1007.52 1007.18 1006.80 1006.46 1006.23 1006.16 1006.23 1006.37 1006.51 1006.55 1006.45 1006.20 1005.83 1005.42 1005.05 1004.76 1004.56 1004.41 1004.21 1003.87 1003.32 1002.55 1001.62 1000.65 999.82 999.28 999.16 999.49 1000.20 1001.13 1002.11 1002.95 1003.52 1003.79 1003.79 1003.66 1003.55 1003.59 1003.88 1004.41 1005.14 1005.92 1006.64 1007.17
1007.32 1007.52 1007.67 1007.71 1007.60 1007.35 1007.01 1006.65 1006.36 1006.19 1006.16 1006.25 1006.38 1006.48 1006.47 1006.33 1006.05 1005.70 1005.34 1005.04 1004.81 1004.64 1004.44 1004.10 1003.49 1002.57 1001.37 999.99 998.62 997.49 996.79 996.68 997.17 998.17 999.48 1000.87 1002.10 1003.00 1003.51 1003.66 1003.59 1003.49 1003.51 1003.76 1004.29 1005.02 1005.84 1006.62 1007.21
1007.36 1007.55 1007.66 1007.66 1007.51 1007.24 1006.91 1006.59 1006.35 1006.23 1006.25 1006.35 1006.46 1006.52 1006.47 1006.27 1005.97 1005.62 1005.30 1005.06 1004.89 1004.74 1004.48 1003.99 1003.14 1001.87 1000.26 998.45 996.69 995.25 994.37 994.22 994.84 996.09 997.75 999.53 1001.16 1002.43 1003.24 1003.60 1003.67 1003.63 1003.67 1003.91 1004.40 1005.11 1005.93 1006.71 1007.34
1007.42 1007.60 1007.68 1007.64 1007.46 1007.18 1006.86 1006.58 1006.39 1006.33 1006.39 1006.51 1006.62 1006.64 1006.54 1006.30 1005.97 1005.63 1005.34 1005.14 1005.02 1004.88 1004.60 1004.00 1002.95 1001.42 999.49 997.34 995.25 993.54 992.49 992.27 992.95 994.37 996.29 998.39 1000.36 1001.96 1003.07 1003.68 1003.92 1003.99 1004.07 1004.31 1004.77 1005.43 1006.21 1006.95 1007.56
1007.50 1007.66 1007.71 1007.63 1007.43 1007.14 1006.83 1006.58 1006.44 1006.44 1006.54 1006.69 1006.81 1006.83 1006.70 1006.43 1006.08 1005.73 1005.46 1005.30 1005.21 1005.11 1004.83 1004.19 1003.06 1001.39 999.29 996.95 994.67 992.78 991.58 991.29 991.95 993.43 995.47 997.75 999.93 1001.77 1003.11 1003.92 1004.33 1004.51 1004.65 1004.91 1005.34 1005.94 1006.63 1007.31 1007.87
1007.57 1007.70 1007.72 1007.61 1007.37 1007.07 1006.77 1006.55 1006.46 1006.51 1006.67 1006.87 1007.02 1007.05 1006.92 1006.64 1006.28 1005.93 1005.67 1005.53 1005.48 1005.42 1005.19 1004.60 1003.51 1001.88 999.79 997.44 995.14 993.20 991.94 991.57 992.15 993.56 995.56 997.83 1000.06 1001.97 1003.41 1004.35 1004.88 1005.15 1005.35 1005.62 1006.02 1006.55 1007.16 1007.75 1008.23
1007.61 1007.73 1007.71 1007.56 1007.29 1006.97 1006.67 1006.47 1006.43 1006.53 1006.76 1007.02 1007.22 1007.29 1007.19 1006.93 1006.58 1006.22 1005.96 1005.83 1005.82 1005.81 1005.66 1005.20 1004.27 1002.82 1000.93 998.77 996.61 994.76 993.52 993.10 993.55 994.79 996.59 998.68 1000.76 1002.57 1003.98 1004.93 1005.50 1005.83 1006.08 1006.35 1006.73 1007.21 1007.74 1008.24 1008.65
1007.65 1007.73 1007.68 1007.48 1007.19 1006.85 1006.55 1006.37 1006.35 1006.51 1006.79 1007.12 1007.39 1007.53 1007.49 1007.27 1006.94 1006.60 1006.34 1006.20 1006.20 1006.24 1006.19 1005.90 1005.21 1004.07 1002.52 1000.69 998.83 997.21 996.08 995.63 995.94 996.93 998.43 1000.19 1001.95 1003.52 1004.75 1005.60 1006.15 1006.49 1006.76 1007.05 1007.41 1007.85 1008.32 1008.75 1009.09
1007.68 1007.73 1007.65 1007.43 1007.10 1006.75 1006.45 1006.27 1006.27 1006.47 1006.80 1007.20 1007.55 1007.77 1007.80 1007.65 1007.37 1007.05 1006.78 1006.63 1006.61 1006.68 1006.72 1006.60 1006.19 1005.40 1004.27 1002.88 1001.43 1000.11 999.17 998.74 998.91 999.63 1000.75 1002.09 1003.45 1004.66 1005.63 1006.31 1006.77 1007.08 1007.36 1007.67 1008.04 1008.47 1008.90 1009.28 1009.58
1007.73 1007.76 1007.66 1007.42 1007.08 1006.71 1006.40 1006.23 1006.24 1006.45 1006.82 1007.27 1007.69 1008.00 1008.13 1008.06 1007.84 1007.55 1007.27 1007.09 1007.04 1007.11 1007.20 1007.22 1007.04 1006.61 1005.89 1004.96 1003.94 1002.99 1002.27 1001.92 1001.98 1002.43 1003.18 1004.10 1005.03 1005.85 1006.52 1007.00 1007.34 1007.63 1007.91 1008.25 1008.64 1009.08 1009.50 1009.86 1010.14
1007.84 1007.86 1007.74 1007.50 1007.15 1006.79 1006.47 1006.28 1006.29 1006.50 1006.87 1007.35 1007.83 1008.22 1008.44 1008.47 1008.33 1008.08 1007.81 1007.60 1007.50 1007.51 1007.60 1007.69 1007.69 1007.52 1007.17 1006.64 1006.03 1005.43 1004.95 1004.69 1004.70 1004.95 1005.39 1005.92 1006.47 1006.96 1007.35 1007.64 1007.89 1008.15 1008.45 1008.82 1009.26 1009.71 1010.15 1010.51 1010.79
1008.01 1008.03 1007.92 1007.69 1007.36 1007.00 1006.68 1006.48 1006.46 1006.64 1006.99 1007.47 1007.98 1008.42 1008.72 1008.85 1008.80 1008.61 1008.36 1008.13 1007.97 1007.92 1007.96 1008.04 1008.11 1008.11 1008.00 1007.78 1007.49 1007.18 1006.93 1006.79 1006.78 1006.91 1007.13 1007.40 1007.67 1007.90 1008.09 1008.27 1008.46 1008.71 1009.04 1009.45 1009.93 1010.42 1010.87 1011.25 1011.52
1008.26 1008.29 1008.20 1008.00 1007.70 1007.36 1007.05 1006.84 1006.77 1006.90 1007.20 1007.63 1008.12 1008.59 1008.95 1009.17 1009.21 1009.11 1008.91 1008.68 1008.49 1008.36 1008.31 1008.33 1008.38 1008.43 1008.43 1008.39 1008.31 1008.21 1008.13 1008.10 1008.13 1008.21 1008.33 1008.45 1008.57 1008.68 1008.78 1008.91 1009.09 1009.36 1009.73 1010.19 1010.70 1011.21 1011.67 1012.06 1012.34
1008.58 1008.63 1008.57 1008.40 1008.15 1007.86 1007.56 1007.33 1007.22 1007.27 1007.49 1007.84 1008.27 1008.72 1009.11 1009.40 1009.54 1009.53 1009.42 1009.23 1009.03 1008.86 1008.73 1008.66 1008.64 1008.64 1008.66 1008.68 1008.69 1008.71 1008.74 1008.80 1008.88 1008.98 1009.08 1009.18 1009.27 1009.36 1009.46 1009.60 1009.83 1010.14 1010.55 1011.03 1011.55 1012.06 1012.52 1012.90 1013.17
1008.94 1009.00 1008.98 1008.87 1008.68 1008.44 1008.17 1007.94 1007.78 1007.75 1007.85 1008.08 1008.42 1008.80 1009.19 1009.51 1009.74 1009.85 1009.84 1009.75 1009.60 1009.42 1009.25 1009.11 1009.00 1008.93 1008.89 1008.88 1008.90 1008.96 1009.04 1009.16 1009.29 1009.44 1009.59 1009.74 1009.88 1010.02 1010.19 1010.40 1010.68 1011.03 1011.46 1011.94 1012.44 1012.93 1013.36 1013.70 1013.96
1009.32 1009.40 1009.41 1009.36 1009.24 1009.06 1008.85 1008.62 1008.42 1008.30 1008.27 1008.36 1008.56 1008.84 1009.18 1009.51 1009.80 1010.02 1010.15 1010.18 1010.14 1010.03 1009.88 1009.71 1009.55 1009.40 1009.29 1009.22 1009.20 1009.24 1009.33 1009.46 1009.64 1009.84 1010.06 1010.28 1010.51 1010.74 1010.99 1011.28 1011.61 1011.99 1012.42 1012.87 1013.32 1013.74 1014.11 1014.41 1014.64
1009.71 1009.78 1009.83 1009.84 1009.80 1009.71 1009.55 1009.34 1009.11 1008.90 1008.75 1008.68 1008.72 1008.86 1009.10 1009.40 1009.73 1010.04 1010.30 1010.49 1010.59 1010.61 1010.55 1010.43 1010.28 1010.11 1009.95 1009.83 1009.76 1009.75 1009.81 1009.94 1010.13 1010.36 1010.63 1010.92 1011.23 1011.54 1011.87 1012.21 1012.57 1012.95 1013.33 1013.72 1014.09 1014.43 1014.72 1014.97 1015.17
1010.07 1010.15 1010.23 1010.31 1010.35 1010.33 1010.24 1010.07 1009.82 1009.54 1009.26 1009.03 1008.90 1008.88 1008.99 1009.22 1009.54 1009.91 1010.29 1010.63 1010.91 1011.10 1011.18 1011.18 1011.10 1010.98 1010.83 1010.70 1010.60 1010.55 1010.58 1010.68 1010.86 1011.09 1011.38 1011.70 1012.04 1012.40 1012.76 1013.12 1013.47 1013.81 1014.14 1014.44 1014.72 1014.96 1015.17 1015.35 1015.51
1010.43 1010.50 1010.61 1010.75 1010.87 1010.93 1010.91 1010.78 1010.53 1010.19 1009.80 1009.43 1009.12 1008.93 1008.90 1009.02 1009.30 1009.68 1010.14 1010.61 1011.04 1011.40 1011.67 1011.83 1011.89 1011.87 1011.80 1011.71 1011.62 1011.57 1011.57 1011.64 1011.79 1011.99 1012.26 1012.56 1012.90 1013.25 1013.60 1013.93 1014.25 1014.54 1014.79 1015.00 1015.17 1015.32 1015.45 1015.57 1015.71
1010.77 1010.86 1011.00 1011.18 1011.37 1011.51 1011.55 1011.45 1011.21 1010.82 1010.35 1009.85 1009.40 1009.05 1008.86 1008.86 1009.05 1009.40 1009.88 1010.43 1010.98 1011.50 1011.94 1012.27 1012.50 1012.62 1012.67 1012.67 1012.65 1012.63 1012.63 1012.68 1012.79 1012.95 1013.16 1013.41 1013.70 1014.00 1014.31 1014.60 1014.86 1015.08 1015.26 1015.39 1015.48 1015.55 1015.61 1015.69 1015.79
1011.13 1011.22 1011.39 1011.62 1011.86 1012.04 1012.13 1012.07 1011.83 1011.43 1010.90 1010.31 1009.73 1009.25 1008.92 1008.79 1008.87 1009.15 1009.60 1010.16 1010.77 1011.39 1011.95 1012.43 1012.81 1013.10 1013.29 1013.41 1013.48 1013.53 1013.57 1013.62 1013.70 1013.81 1013.96 1014.15 1014.37 1014.61 1014.85 1015.08 1015.29 1015.46 1015.58 1015.65 1015.69 1015.71 1015.72 1015.76 1015.84
1011.50 1011.62 1011.81 1012.06 1012.33 1012.54 1012.65 1012.60 1012.37 1011.96 1011.40 1010.76 1010.11 1009.53 1009.10 1008.85 1008.82 1009.01 1009.38 1009.89 1010.50 1011.14 1011.76 1012.33 1012.83 1013.25 1013.57 1013.82 1014.00 1014.13 1014.23 1014.31 1014.38 1014.47 1014.57 1014.70 1014.85 1015.03 1015.22 1015.40 1015.57 1015.71 1015.80 1015.85 1015.87 1015.86 1015.84 1015.85 1015.90
1011.88 1012.03 1012.24 1012.50 1012.76 1012.98 1013.08 1013.04 1012.81 1012.39 1011.83 1011.18 1010.50 1009.88 1009.38 1009.05 1008.93 1009.01 1009.29 1009.71 1010.25 1010.84 1011.46 1012.06 1012.61 1013.11 1013.53 1013.89 1014.17 1014.40 1014.57 1014.69 1014.79 1014.87 1014.95 1015.04 1015.15 1015.28 1015.44 1015.60 1015.75 1015.89 1015.98 1016.04 1016.06 1016.04 1016.02 1016.00 1016.02
1012.26 1012.43 1012.64 1012.89 1013.14 1013.32 1013.41 1013.34 1013.11 1012.71 1012.16 1011.53 1010.88 1010.26 1009.75 1009.38 1009.19 1009.19 1009.36 1009.68 1010.11 1010.61 1011.16 1011.72 1012.27 1012.79 1013.27 1013.69 1014.06 1014.37 1014.61 1014.80 1014.93 1015.03 1015.12 1015.20 1015.30 1015.41 1015.55 1015.71 1015.88 1016.03 1016.15 1016.23 1016.27 1016.27 1016.25 1016.22 1016.20
1012.61 1012.79 1012.99 1013.21 1013.42 1013.55 1013.59 1013.50 1013.26 1012.88 1012.37 1011.79 1011.20 1010.63 1010.15 1009.79 1009.59 1009.53 1009.61 1009.82 1010.13 1010.52 1010.96 1011.44 1011.93 1012.42 1012.91 1013.36 1013.78 1014.15 1014.46 1014.71 1014.90 1015.04 1015.15 1015.24 1015.35 1015.47 1015.62 1015.80 1015.98 1016.16 1016.32 1016.44 1016.51 1016.53 1016.51 1016.46 1016.41
1012.90 1013.07 1013.26 1013.43 1013.58 1013.66 1013.65 1013.52 1013.28 1012.91 1012.46 1011.95 1011.44 1010.96 1010.55 1010.23 1010.03 1009.95 1009.98 1010.11 1010.31 1010.58 1010.91 1011.28 1011.69 1012.12 1012.58 1013.03 1013.47 1013.87 1014.23 1014.53 1014.77 1014.96 1015.11 1015.23 1015.36 1015.50 1015.67 1015.87 1016.08 1016.29 1016.48 1016.63 1016.72 1016.76 1016.75 1016.69 1016.62
1013.11 1013.26 1013.41 1013.53 1013.61 1013.63 1013.57 1013.42 1013.16 1012.83 1012.43 1012.01 1011.59 1011.20 1010.87 1010.63 1010.47 1010.39 1010.39 1010.46 1010.59 1010.76 1010.99 1011.26 1011.58 1011.94 1012.35 1012.77 1013.21 1013.63 1014.01 1014.35 1014.63 1014.86 1015.05 1015.21 1015.37 1015.53 1015.72 1015.93 1016.15 1016.38 1016.59 1016.76 1016.88 1016.93 1016.92 1016.87 1016.77
1013.23 1013.35 1013.44 1013.51 1013.53 1013.50 1013.39 1013.21 1012.96 1012.66 1012.32 1011.97 1011.63 1011.34 1011.10 1010.92 1010.81 1010.76 1010.76 1010.80 1010.87 1010.99 1011.14 1011.33 1011.58 1011.88 1012.23 1012.62 1013.03 1013.45 1013.84 1014.20 1014.52 1014.78 1015.00 1015.19 1015.37 1015.55 1015.75 1015.96 1016.19 1016.42 1016.63 1016.81 1016.93 1017.00 1017.00 1016.95 1016.85
1013.28 1013.35 1013.39 1013.39 1013.36 1013.28 1013.14 1012.95 1012.71 1012.44 1012.15 1011.86 1011.60 1011.37 1011.20 1011.07 1011.00 1010.98 1010.98 1011.02 1011.07 1011.15 1011.26 1011.41 1011.61 1011.87 1012.17 1012.52 1012.91 1013.31 1013.70 1014.07 1014.41 1014.70 1014.94 1015.16 1015.36 1015.55 1015.75 1015.96 1016.18 1016.39 1016.60 1016.77 1016.89 1016.96 1016.97 1016.93 1016.86
Thickness
5830 5835 5838 5835 5829 5825 5812 5816 5823 5819 5820 5825 5825 5819 5813 5807 5800 5788 5806 5813 5809 5806 5798 5790 5784 5781 5779 5777 5775 5774 5773 5772 5771 5770 5769 5768 5768 5768 5768 5767 5767 5767 5766 5765 5765 5764 5763 5762 5762
5838 5839 5836 5835 5827 5810 5807 5819 5818 5819 5823 5827 5824 5819 5813 5807 5809 5807 5809 5809 5808 5804 5799 5791 5783 5780 5778 5776 5774 5773 5771 5770 5769 5768 5767 5767 5767 5766 5766 5766 5766 5766 5765 5765 5764 5762 5761 5761 5760
5840 5839 5835 5835 5822 5813 5809 5820 5821 5825 5829 5825 5819 5819 5812 5805 5808 5809 5811 5809 5808 5804 5798 5788 5782 5779 5777 5774 5773 5771 5770 5769 5767 5766 5766 5766 5765 5765 5765 5764 5764 5764 5764 5763 5762 5761 5760 5759 5758
5839 5837 5837 5828 5814 5820 5822 5824 5827 5823 5825 5826 5821 5812 5811 5812 5813 5814 5812 5810 5807 5803 5798 5788 5781 5778 5775 5773 5771 5770 5769 5767 5766 5765 5764 5764 5763 5763 5763 5763 5762 5762 5762 5761 5760 5759 5758 5757 5756
5840 5836 5826 5818 5816 5823 5830 5831 5830 5823 5821 5821 5819 5808 5803 5810 5816 5814 5810 5808 5805 5802 5797 5788 5780 5777 5774 5772 5770 5768 5767 5766 5764 5763 5762 5762 5762 5762 5762 5761 5761 5760 5760 5760 5759 5758 5757 5756 5755
5835 5835 5819 5810 5813 5823 5829 5833 5830 5825 5822 5821 5818 5809 5801 5810 5811 5810 5810 5807 5805 5801 5796 5788 5779 5776 5773 5771 5769 5767 5768 5767 5765 5762 5761 5760 5760 5760 5760 5760 5759 5759 5759 5759 5758 5757 5756 5755 5754
5830 5828 5817 5816 5813 5817 5825 5834 5828 5824 5820 5820 5822 5809 5802 5806 5809 5810 5808 5806 5803 5799 5795 5790 5785 5778 5773 5771 5768 5766 5766 5765 5764 5761 5760 5758 5757 5758 5758 5758 5757 5757 5757 5756 5756 5755 5755 5754 5753
5838 5830 5818 5818 5813 5815 5827 5831 5831 5826 5820 5827 5824 5809 5802 5805 5809 5808 5806 5804 5800 5797 5794 5789 5786 5781 5778 5774 5768 5766 5765 5764 5762 5761 5759 5758 5757 5757 5757 5757 5755 5755 5755 5754 5753 5753 5753 5752 5752
5836 5822 5813 5816 5816 5818 5828 5826 5828 5833 5825 5821 5822 5818 5815 5811 5808 5803 5800 5798 5796 5793 5792 5788 5786 5782 5780 5777 5770 5767 5765 5763 5762 5761 5759 5758 5759 5759 5758 5756 5754 5753 5753 5752 5751 5751 5751 5751 5751
5828 5814 5814 5824 5828 5825 5826 5826 5825 5822 5816 5814 5813 5813 5813 5808 5804 5800 5796 5793 5791 5789 5789 5788 5785 5782 5779 5777 5772 5770 5768 5765 5764 5762 5761 5760 5759 5758 5757 5753 5752 5752 5752 5751 5751 5751 5751 5752 5754
5824 5816 5820 5824 5829 5828 5824 5825 5828 5819 5811 5814 5811 5808 5807 5805 5802 5800 5798 5795 5793 5791 5787 5787 5784 5780 5778 5775 5772 5770 5768 5765 5764 5762 5760 5759 5758 5757 5756 5755 5753 5753 5752 5753 5751 5752 5753 5753 5752
5817 5817 5821 5823 5826 5825 5823 5824 5821 5818 5817 5823 5821 5815 5808 5803 5801 5800 5797 5795 5793 5790 5786 5785 5782 5779 5776 5773 5771 5768 5767 5764 5763 5760 5759 5758 5757 5755 5755 5754 5754 5753 5753 5751 5752 5751 5750 5749 5748
5811 5812 5817 5821 5822 5823 5822 5819 5817 5815 5821 5823 5818 5813 5807 5804 5802 5800 5798 5795 5792 5788 5785 5783 5780 5776 5772 5770 5768 5767 5765 5763 5761 5758 5756 5756 5756 5754 5753 5751 5750 5751 5751 5751 5749 5749 5747 5747 5747
5811 5812 5813 5816 5818 5819 5815 5815 5814 5812 5819 5815 5811 5808 5807 5804 5801 5798 5795 5791 5788 5786 5783 5781 5778 5774 5771 5768 5766 5765 5764 5760 5760 5757 5755 5754 5754 5752 5751 5749 5748 5748 5748 5747 5747 5746 5744 5744 5743
5810 5803 5805 5809 5813 5815 5813 5803 5807 5813 5815 5809 5808 5806 5804 5803 5800 5796 5793 5790 5788 5784 5782 5778 5776 5774 5770 5768 5765 5764 5762 5760 5758 5756 5753 5752 5751 5749 5748 5748 5746 5745 5744 5743 5743 5742 5742 5741 5741
5802 5796 5791 5802 5807 5810 5803 5793 5805 5813 5809 5805 5805 5803 5801 5799 5799 5797 5794 5790 5787 5784 5780 5777 5776 5773 5768 5765 5763 5762 5760 5758 5755 5754 5752 5749 5747 5745 5744 5745 5744 5742 5742 5741 5740 5740 5739 5738 5737
5790 5786 5788 5794 5803 5804 5800 5795 5802 5809 5806 5801 5801 5800 5798 5796 5796 5796 5794 5790 5786 5782 5778 5774 5773 5770 5767 5764 5761 5759 5756 5754 5752 5750 5748 5746 5744 5743 5743 5742 5740 5738 5739 5739 5738 5736 5735 5734 5733
5782 5786 5786 5787 5795 5796 5793 5793 5797 5802 5802 5800 5799 5798 5796 5794 5793 5794 5792 5789 5784 5781 5776 5773 5770 5766 5764 5761 5757 5755 5753 5751 5749 5747 5745 5743 5742 5740 5740 5739 5736 5736 5736 5734 5733 5731 5730 5731 5731
5786 5782 5781 5786 5792 5789 5787 5787 5791 5795 5796 5795 5795 5794 5793 5792 5793 5792 5788 5785 5781 5777 5773 5770 5767 5763 5760 5758 5755 5752 5750 5748 5746 5745 5742 5740 5738 5738 5736 5737 5734 5733 5732 5730 5730 5729 5727 5728 5728
5777 5773 5776 5780 5785 5782 5782 5782 5789 5790 5789 5791 5790 5789 5788 5788 5786 5784 5783 5781 5777 5773 5770 5767 5764 5761 5758 5756 5753 5750 5748 5746 5744 5742 5739 5736 5735 5733 5734 5732 5732 5730 5728 5727 5726 5725 5725 5725 5725
5770 5771 5774 5774 5777 5780 5776 5774 5779 5783 5785 5785 5785 5786 5785 5783 5781 5779 5777 5776 5774 5770 5767 5765 5761 5758 5755 5753 5751 5747 5744 5742 5740 5736 5735 5733 5731 5730 5728 5727 5727 5726 5727 5725 5723 5722 5721 5720 5722
5764 5776 5774 5769 5765 5771 5771 5763 5774 5777 5774 5774 5776 5779 5779 5779 5778 5776 5774 5770 5768 5766 5765 5761 5757 5754 5751 5749 5747 5743 5739 5736 5734 5732 5731 5729 5727 5726 5725 5724 5722 5722 5723 5721 5721 5721 5720 5717 5717
5769 5775 5771 5767 5765 5764 5768 5761 5771 5774 5765 5767 5770 5772 5773 5774 5774 5772 5770 5767 5765 5763 5760 5758 5753 5749 5747 5745 5742 5737 5735 5733 5731 5728 5725 5724 5723 5721 5720 5719 5718 5717 5719 5717 5716 5716 5716 5716 5715
5769 5765 5763 5763 5763 5747 5761 5756 5761 5767 5765 5766 5766 5765 5765 5766 5767 5765 5764 5762 5759 5757 5754 5751 5747 5744 5742 5739 5737 5733 5730 5727 5724 5721 5720 5719 5718 5717 5715 5714 5713 5713 5714 5712 5712 5712 5712 5712 5711
5761 5752 5744 5742 5744 5749 5761 5752 5755 5763 5765 5763 5759 5757 5758 5759 5759 5757 5755 5753 5750 5748 5747 5744 5741 5738 5736 5733 5730 5727 5725 5722 5718 5716 5715 5714 5714 5712 5710 5710 5708 5708 5708 5708 5708 5707 5708 5708 5706
5755 5755 5740 5733 5740 5751 5748 5747 5756 5760 5760 5758 5756 5753 5751 5751 5752 5750 5748 5746 5743 5741 5739 5737 5734 5731 5729 5727 5724 5722 5719 5718 5716 5712 5711 5710 5710 5708 5706 5704 5704 5703 5702 5703 5703 5704 5703 5702 5701
5750 5752 5760 5748 5745 5741 5748 5749 5749 5753 5749 5748 5747 5744 5742 5742 5742 5741 5740 5738 5736 5734 5731 5730 5727 5725 5723 5721 5719 5716 5713 5712 5710 5707 5705 5706 5704 5703 5701 5699 5699 5699 5697 5697 5697 5698 5697 5696 5696
5757 5754 5747 5740 5724 5723 5736 5738 5742 5739 5739 5739 5737 5736 5734 5733 5732 5731 5730 5729 5728 5727 5725 5722 5720 5718 5716 5715 5714 5712 5708 5706 5705 5703 5700 5699 5698 5696 5695 5694 5693 5693 5693 5692 5692 5692 5692 5691 5691
5741 5740 5740 5741 5738 5724 5722 5732 5744 5739 5736 5732 5730 5729 5727 5724 5722 5720 5719 5718 5718 5718 5717 5714 5711 5710 5708 5708 5707 5705 5703 5701 5699 5697 5696 5694 5692 5691 5689 5688 5687 5688 5687 5686 5686 5687 5687 5686 5686
5742 5739 5735 5723 5722 5726 5724 5724 5735 5734 5732 5728 5723 5721 5719 5716 5715 5712 5710 5708 5707 5706 5705 5705 5703 5703 5701 5701 5699 5697 5696 5694 5692 5691 5689 5688 5687 5686 5684 5683 5682 5683 5682 5681 5680 5681 5682 5682 5681